Terug naar catalogus

COSMOS 1375

ActiefMilitairLEO
NORAD 13259·PAYLOAD·🇷🇺 Russia

Gelanceerd Jun 6, 1982 vanaf Plesetsk Cosmodrome

Loading…

Volgende Passages (komende 24 uur)

TLE

VersSource: Space-Track

Epoch: Sep 14, 2026, 04:05 UTC

1 13259U 82055A   26257.17046784  .00000090  00000-0  15293-3 0  9991
2 13259  65.8312 180.9688 0014438 151.6468 208.5389 13.84990904226404

Volg COSMOS 1375 in realtime met AllMySat

Download on the App Store